Regional Weather Roundup
Issued by NWS

Home | Current Version | Previous Version | Graphics & Text | Print | Product List | Glossary On
Versions: 1 2 3 4 5 6 7 8 9 10 11 12 13 14 15 16 17 18 19 20 21 22 23 24 25 26 27 28 29 30 31 32 33 34 35 36 37 38 39 40 41 42 43 44 45 46 47 48 49 50
000
ASUS43 KMKX 310400
RWRWI

WISCONSIN REGIONAL WEATHER ROUNDUP
NATIONAL WEATHER SERVICE MILWAUKEE/SULLIVAN WI
1100 PM CDT THU OCT 30 2014

NOTE: "FAIR" INDICATES FEW OR NO CLOUDS BELOW 12,000 FEET WITH NO
SIGNIFICANT WEATHER AND/OR OBSTRUCTIONS TO VISIBILITY.

WIZ001-002-006>008-014>016-023>028-310500-
NORTHWEST WISCONSIN

CITY           SKY/WX    TMP DP  RH WIND       PRES   REMARKS
SUPERIOR ARPT  FAIR      31  20  63 N16G26    30.32R WCI  20
ASHLAND        LGT SNOW  31  29  92 N17G24    30.26R FOG     WCI  19
HAYWARD        CLOUDY    31  20  63 N10G21    30.25R WCI  22
SIREN          PTCLDY    31  17  56 N13G23    30.30R WCI  21
CUMBERLAND     PTCLDY    30  18  59 N20G26    30.25R WCI  18
RICE LAKE      MOCLDY    32  20  61 NW14G21   30.26R WCI  22
CHETEK         CLOUDY    34  21  59 NW15G25   30.23R WCI  24
LADYSMITH      CLOUDY    33  26  74 NW25G33   30.20R WCI  20
EAU CLAIRE     NOT AVBL
MENOMONIE      CLOUDY    37  20  52 N23G32    30.23R WCI  25
NEW RICHMOND   PTCLDY    33  12  41 N22G29    30.29R WCI  20
OSCEOLA        PTCLDY    33  11  39 N20G38    30.33R WCI  21
$$

WIZ003>005-009-010-017-018-310500-
NORTH CENTRAL WISCONSIN

CITY           SKY/WX    TMP DP  RH WIND       PRES   REMARKS
MANITOWISH WTR LGT SNOW  32  32 100 NW8       30.07R VSB 1   WCI  25
ARBOR VITAE    LGT SNOW  34  32  93 NW8       30.06S WCI  27
WOODRUFF       LGT SNOW  34  32  93 NW8       30.06S WCI  27
RHINELANDER    LGT SNOW  32  30  92 NW9       30.06R VSB 1   WCI  24
EAGLE RIVER    LGT SNOW  32  32  99 NW7       30.03S WCI  26
LAND O LAKES   LGT SNOW  33  32  98 N9G21     30.05R WCI  25
PHILLIPS       CLOUDY    31  27  83 NW15G24   30.12R WCI  21
TOMAHAWK       FLURRIES  33  30  89 NW14G26   30.09R WCI  23
MEDFORD        FLURRIES  32  29  90 NW18      30.10R WCI  20
MERRILL        CLOUDY    36  31  82 NW13G22   30.07R WCI  27
$$

WIZ029-030-035-036-043>047-310500-
CENTRAL WISCONSIN

CITY           SKY/WX    TMP DP  RH WIND       PRES   REMARKS
WAUSAU         CLOUDY    37  30  75 NW12G25   30.06R WCI  29
MOSINEE        CLOUDY    37  32  81 N15G30    30.08R WCI  28
MARSHFIELD     FLURRIES  35  30  82 N21G36    30.11R WCI  24
STEVENS POINT  CLOUDY    38  31  73 NW10G16   30.07R WCI  31
WAUPACA        PTCLDY    44  32  64 W6        30.05S
WAUTOMA        NOT AVBL
WISC RAPIDS    CLOUDY    38  33  82 NW13G20   30.10R WCI  30
CAMP DOUGLAS   NOT AVBL
$$

WIZ011>013-019>022-031-037>040-048>050-310500-
NORTHEAST WISCONSIN

CITY           SKY/WX    TMP DP  RH WIND       PRES   REMARKS
ANTIGO         CLOUDY    35  32  88 NW16      30.04R WCI  25
SHAWANO        PTCLDY    42  31  65 NW8       30.03S
OCONTO         CLOUDY    42  33  70 NW7       30.01S
STURGEON BAY   CLOUDY    43  30  61 NW17G25   29.99S
GREEN BAY      CLOUDY    44  33  65 NW10      30.02S
MANITOWOC      NOT AVBL
APPLETON       MOCLDY    43  32  65 NW10      30.03S
CLINTONVILLE   CLEAR     41  30  65 NW10      30.03S
OSHKOSH        CLOUDY    44  34  67 W10       30.03S
$$

WIZ032>034-041-042-053>061-310500-
SOUTHWEST WISCONSIN

CITY           SKY/WX    TMP DP  RH WIND       PRES   REMARKS
LA CROSSE      CLOUDY    44  29  55 N24G35    30.16R
SPARTA         CLOUDY    42  31  62 NW12      30.14S
VIROQUA        CLOUDY    41  31  68 NW14G20   30.13R
BOSCOBEL       CLOUDY    47  32  56 N13G24    30.14R
PRAIRIE DU CHI CLOUDY    46  32  57 NW18G26   30.14R
PLATTEVILLE    CLOUDY    46  39  78 NW13      30.11S
$$

WIZ056-057-062-063-064-067-068-310500-
SOUTH CENTRAL WISCONSIN

CITY           SKY/WX    TMP DP  RH WIND       PRES   REMARKS
REEDSBURG      CLOUDY    43  32  65 N12G17    30.10R
BARABOO/DELLS  CLOUDY    43  31  63 NW13G21   30.09R
LONE ROCK      CLOUDY    50  36  58 N12G20    30.11R
MINERAL POINT  CLOUDY    45  36  70 NW8       30.09R
MADISON        CLOUDY    47  36  65 NW13G20   30.06S
MIDDLETON      CLOUDY    47  36  67 NW7       30.07S
WATERTOWN      DRIZZLE   44  38  80 W8        30.04S
MONROE         CLOUDY    45  37  76 W8        30.06S
JANESVILLE     CLOUDY    45  36  70 W6        30.05S
$$

WIZ051-052-058>065-066-070>072-310500-
SOUTHEAST WISCONSIN

CITY           SKY/WX    TMP DP  RH WIND       PRES   REMARKS
MILWAUKEE      LGT RAIN  48  36  63 W9        30.02F
WAUKESHA       DRIZZLE   43  36  75 W10       30.03S
MILWAUKEE/TIMM CLOUDY    45  34  65 W9        30.03S
RACINE         LGT RAIN  47  35  63 W8        30.04S
BURLINGTON     CLOUDY    44  36  73 W6        30.03F
KENOSHA        CLOUDY    46  37  71 W9        30.03F
FOND DU LAC    CLOUDY    44  32  62 NW14      30.04R
SHEBOYGAN      CLOUDY    45  33  63 NW16G22   30.01S
WEST BEND      DRIZZLE   45  34  65 NW16      30.02S
JUNEAU         DRIZZLE   44  36  72 NW10G18   30.05R
$$

LSZ147-162-310500-
LAKE SUPERIOR

STATION/POSITION TIME  TEMP    WIND        PRES    WAVE
                       AIR SEA DIR/SP/G            HT/PER
                 (UTC) (F)     (DEG/KT/KT) (MB)    (FT/S)
W MID LAKE BUOY  0250   37 45  350/ 31/ 37 1020.8R   7/ 6
DEVILS ISLAND    0300   34     360/ 32/ 36 1024.3R
PORT WING        0340   36     350/ 30     1025.7R
SAXON HARBOR     0314   36     360/ 31/ 36 1022.0R
$$

LMZ867-665-643>646-310500-
LAKE MICHIGAN

STATION/POSITION TIME  TEMP    WIND        PRES    WAVE
                       AIR SEA DIR/SP/G            HT/PER
                 (UTC) (F)     (DEG/KT/KT) (MB)    (FT/S)
CHAMBERS ISLAND  0340   43     300/  6/ 12 1015.2F
N MID LAKE BUOY  0250   44 51  300/ 17/ 21 1014.5F   3/ 4
NORTHPORT PIER   0300   43     300/ 12/ 19 1014.9F
KEWAUNEE LAKESHO 0300   44     310/  6/  9 1014.8R
SHEBOYGAN LAKESH 0300   47 50  310/ 12/ 16 1016.7R
PORT WASHINGTON  0340   48     300/  7/ 13 1016.9S
ATWATER BUOY     0300   49     270/ 10/ 14 1017.6F
MILWAUKEE LAKESH 0300   49     290/  9/ 13   N/A
S MID LAKE BUOY  0250   50 53  280/ 12/ 16 1016.8F   1/ 3
KENOSHA   LAKESH 0300   48     260/  8/ 11 1016.9S
$$

TC  - TEMPERATURE IN CELSIUS
VSB - VISIBILITY IN STATUTE MILES
WCI - WIND CHILL INDEX
HX  - HEAT INDEX




USA.gov is the U.S. government's official web portal to all federal, state and local government web resources and services.